CW1913 Weather Reports


time (UTC)temp
C
wind
direction
speed
KPH
gust
KPH
rain 1hr
cm
rain 24hr
cm
rain mn
cm
humidity
%
barometer
mb
20260510194120 32 111 3.2 11.3 0.00 0.00 0.00 62 1017.2
20260510193624 32 165 3.2 11.3 0.00 0.00 0.00 63 1017.2
20260510193141 32 229 3.2 12.9 0.00 0.00 0.00 63 1017.2
20260510192618 31 222 3.2 12.9 0.00 0.00 0.00 65 1017.3
20260510192131 31 240 6.4 12.9 0.00 0.00 0.00 65 1017.2
20260510191622 31 186 3.2 11.3 0.00 0.00 0.00 66 1017.3
20260510191145 31 183 3.2 9.7 0.00 0.00 0.00 67 1017.4
20260510190641 30 198 3.2 12.9 0.00 0.00 0.00 68 1017.4
20260510190121 31 260 1.6 16.1 0.00 0.00 0.00 66 1017.4
20260510185625 31 221 3.2 14.5 0.00 0.00 0.00 64 1017.4
20260510185124 32 139 6.4 14.5 0.00 0.00 0.00 62 1017.5
20260510184643 33 231 6.4 12.9 0.00 0.00 0.00 62 1017.4
20260510184137 33 266 4.8 14.5 0.00 0.00 0.00 60 1017.3
20260510183625 33 256 6.4 11.3 0.00 0.00 0.00 59 1017.3
20260510183119 33 281 4.8 12.9 0.00 0.00 0.00 59 1017.3
20260510182620 33 290 8.0 12.9 0.00 0.00 0.00 59 1017.2
20260510182124 33 304 4.8 11.3 0.00 0.00 0.00 59 1017.1
20260510181622 33 252 1.6 11.3 0.00 0.00 0.00 60 1017.2
20260510181119 34 227 4.8 11.3 0.00 0.00 0.00 60 1017.1
20260510180647 34 273 3.2 11.3 0.00 0.00 0.00 60 1017.1
20260510180128 34 238 6.4 12.9 0.00 0.00 0.00 60 1017.3
20260510175622 34 246 4.8 14.5 0.00 0.00 0.00 60 1017.3
20260510175123 34 254 4.8 11.3 0.00 0.00 0.00 61 1017.4
20260510174645 33 228 6.4 12.9 0.00 0.00 0.00 62 1017.4
20260510174132 33 204 4.8 11.3 0.00 0.00 0.00 61 1017.6
20260510173632 33 263 4.8 11.3 0.00 0.00 0.00 61 1017.6
20260510173119 33 242 3.2 8.0 0.00 0.00 0.00 65 1017.8
20260510172619 32 257 4.8 9.7 0.00 0.00 0.00 67 1017.9
20260510172126 32 285 1.6 11.3 0.00 0.00 0.00 69 1017.8
20260510171618 32 261 4.8 11.3 0.00 0.00 0.00 66 1017.9
20260510171118 32 254 3.2 11.3 0.00 0.00 0.00 67 1018.0
20260510170639 32 175 4.8 9.7 0.00 0.00 0.00 66 1018.0
20260510170118 32 260 1.6 9.7 0.00 0.00 0.00 66 1018.1
20260510165621 32 282 3.2 11.3 0.00 0.00 0.00 68 1018.2
20260510165142 32 164 3.2 11.3 0.00 0.00 0.00 68 1018.2
20260510164657 32 262 1.6 6.4 0.00 0.00 0.00 69 1018.3
20260510164116 32 267 1.6 8.0 0.00 0.00 0.00 70 1018.4
20260510163622 31 180 1.6 8.0 0.00 0.00 0.00 70 1018.5
20260510163123 31 263 1.6 4.8 0.00 0.00 0.00 72 1018.5
20260510162622 31 265 0.0 8.0 0.00 0.00 0.00 72 1018.7
20260510162124 31 241 4.8 9.7 0.00 0.00 0.00 70 1018.8
20260510161638 31 260 6.4 9.7 0.00 0.00 0.00 70 1018.9
20260510161121 31 238 6.4 9.7 0.00 0.00 0.00 72 1018.9
20260510160621 31 271 4.8 9.7 0.00 0.00 0.00 72 1018.8
20260510160125 31 294 1.6 9.7 0.00 0.00 0.00 72 1018.7
20260510155646 31 285 3.2 9.7 0.00 0.00 0.00 73 1018.8
20260510155121 31 255 4.8 9.7 0.00 0.00 0.00 72 1018.8
20260510154645 31 242 3.2 8.0 0.00 0.00 0.00 73 1018.8
20260510154124 31 269 0.0 9.7 0.00 0.00 0.00 73 1018.8
20260510153643 31 260 3.2 14.5 0.00 0.00 0.00 73 1018.8
20260510153202 31 227 4.8 14.5 0.00 0.00 0.00 72 1018.9
20260510152616 31 254 3.2 8.0 0.00 0.00 0.00 73 1018.8
20260510152206 31 250 3.2 8.0 0.00 0.00 0.00 72 1018.8
20260510151627 31 254 3.2 9.7 0.00 0.00 0.00 72 1018.8
20260510151124 31 188 3.2 9.7 0.00 0.00 0.00 73 1018.8
20260510150620 31 234 4.8 12.9 0.00 0.00 0.00 73 1018.8
20260510150120 31 186 3.2 14.5 0.00 0.00 0.00 73 1018.8
20260510145616 31 165 4.8 9.7 0.00 0.00 0.00 73 1018.8
20260510145117 31 210 1.6 11.3 0.00 0.00 0.00 74 1018.7
20260510144618 30 227 4.8 11.3 0.00 0.00 0.00 74 1018.7
20260510144139 30 246 4.8 11.3 0.00 0.00 0.00 74 1018.7
20260510143626 30 248 4.8 11.3 0.00 0.00 0.00 75 1018.6
20260510143126 30 201 6.4 11.3 0.00 0.00 0.00 76 1018.7
20260510142621 30 249 3.2 9.7 0.00 0.00 0.00 77 1018.6
20260510142119 29 254 3.2 9.7 0.00 0.00 0.00 78 1018.5
20260510141632 29 236 3.2 8.0 0.00 0.00 0.00 78 1018.4
20260510141132 29 264 3.2 11.3 0.00 0.00 0.00 79 1018.4
20260510140619 28 255 6.4 12.9 0.00 0.00 0.00 79 1018.6
20260510140121 28 186 1.6 8.0 0.00 0.00 0.00 80 1018.5
20260510135621 28 244 1.6 9.7 0.00 0.00 0.00 80 1018.6
20260510135118 28 296 1.6 11.3 0.00 0.00 0.00 81 1018.5
20260510134619 28 171 4.8 11.3 0.00 0.00 0.00 81 1018.4
20260510134142 28 229 3.2 11.3 0.00 0.00 0.00 83 1018.5
20260510133618 27 253 1.6 9.7 0.00 0.00 0.00 84 1018.4
20260510133119 27 244 3.2 8.0 0.00 0.00 0.00 85 1018.4
20260510132622 26 153 1.6 8.0 0.00 0.00 0.00 86 1018.3
20260510132119 26 219 1.6 8.0 0.00 0.00 0.00 88 1018.3
20260510131621 26 201 0.0 6.4 0.00 0.00 0.00 87 1018.4
20260510131124 26 246 0.0 4.8 0.00 0.00 0.00 88 1018.4
20260510130620 25 248 1.6 4.8 0.00 0.00 0.00 88 1018.3
20260510130121 25 189 0.0 6.4 0.00 0.00 0.00 89 1018.3
20260510125620 25 190 1.6 6.4 0.00 0.00 0.00 89 1018.4
20260510125119 25 251 1.6 4.8 0.00 0.00 0.00 90 1018.3
20260510124620 25 252 0.0 4.8 0.00 0.00 0.00 90 1018.3
20260510124119 25 211 0.0 4.8 0.00 0.00 0.00 90 1018.3
20260510123623 24 226 0.0 4.8 0.00 0.00 0.00 91 1018.2
20260510123123 24 226 0.0 1.6 0.00 0.00 0.00 92 1018.2
20260510122639 24 226 0.0 3.2 0.00 0.00 0.00 92 1018.1
20260510122121 23 227 0.0 3.2 0.00 0.00 0.00 93 1018.1
20260510121619 23 226 0.0 1.6 0.00 0.00 0.00 93 1018.0
20260510121121 23 226 0.0 1.6 0.00 0.00 0.00 93 1018.0
20260510120640 23 226 0.0 1.6 0.00 0.00 0.00 94 1017.9
20260510120121 22 226 0.0 6.4 0.00 0.00 0.00 94 1017.9
20260510115641 22 226 0.0 6.4 0.00 0.00 0.00 94 1017.7
20260510115123 22 294 0.0 0.0 0.00 0.00 0.00 94 1017.6
20260510114618 22 294 0.0 0.0 0.00 0.00 0.00 94 1017.6
20260510114119 22 156 0.0 0.0 0.00 0.00 0.00 94 1017.4
20260510113624 22 156 0.0 0.0 0.00 0.00 0.00 94 1017.3
20260510113140 22 156 0.0 0.0 0.00 0.00 0.00 94 1017.1
20260510112630 22 156 0.0 0.0 0.00 0.00 0.00 94 1017.1
20260510112138 22 156 0.0 0.0 0.00 0.00 0.00 94 1017.0
20260510111625 22 156 0.0 0.0 0.00 0.00 0.00 94 1016.8
20260510111124 22 156 0.0 0.0 0.00 0.00 0.00 94 1016.8
20260510110643 22 156 0.0 0.0 0.00 0.00 0.00 94 1016.7
20260510110148 22 156 0.0 0.0 0.00 0.00 0.00 94 1016.6
20260510105644 22 156 0.0 0.0 0.00 0.00 0.00 94 1016.6
20260510105121 22 156 0.0 0.0 0.00 0.00 0.00 94 1016.5
20260510104622 22 156 0.0 0.0 0.00 0.00 0.00 93 1016.5
20260510104138 22 156 0.0 0.0 0.00 0.00 0.00 93 1016.6
20260510103637 22 156 0.0 0.0 0.00 0.00 0.00 93 1016.5
20260510103120 22 156 0.0 0.0 0.00 0.00 0.00 93 1016.4
20260510102617 22 156 0.0 0.0 0.00 0.00 0.00 93 1016.3
20260510102118 22 156 0.0 1.6 0.00 0.00 0.00 93 1016.2
20260510101624 22 156 0.0 1.6 0.00 0.00 0.00 93 1016.1
20260510101142 22 156 0.0 0.0 0.00 0.00 0.00 93 1016.1
20260510100632 22 156 0.0 0.0 0.00 0.00 0.00 93 1015.9
20260510100146 22 156 0.0 0.0 0.00 0.00 0.00 93 1015.9
20260510095626 22 156 0.0 0.0 0.00 0.00 0.00 93 1015.9
20260510095126 22 156 0.0 0.0 0.00 0.00 0.00 93 1015.9
20260510094623 22 156 0.0 0.0 0.00 0.00 0.00 93 1015.9
20260510094146 22 156 0.0 1.6 0.00 0.00 0.00 93 1015.9
20260510093617 22 156 0.0 1.6 0.00 0.00 0.00 93 1015.8
20260510093118 22 156 0.0 1.6 0.00 0.00 0.00 93 1015.7
20260510092642 22 156 0.0 3.2 0.00 0.00 0.00 93 1015.6
20260510092205 22 156 0.0 1.6 0.00 0.00 0.00 93 1015.7
20260510091616 22 156 0.0 1.6 0.00 0.00 0.00 93 1015.6
20260510091130 22 156 0.0 3.2 0.00 0.00 0.00 93 1015.6
20260510090631 22 156 0.0 3.2 0.00 0.00 0.00 93 1015.5
20260510090118 22 156 0.0 1.6 0.00 0.00 0.00 93 1015.6
20260510085618 22 156 0.0 1.6 0.00 0.00 0.00 93 1015.5
20260510085118 23 156 0.0 1.6 0.00 0.00 0.00 93 1015.4
20260510084619 22 156 0.0 0.0 0.00 0.00 0.00 93 1015.4
20260510084138 23 156 0.0 3.2 0.00 0.00 0.00 94 1015.2
20260510083626 22 156 0.0 3.2 0.00 0.00 0.00 93 1015.1
20260510083145 23 156 0.0 1.6 0.00 0.00 0.00 93 1015.1
20260510082703 22 156 0.0 1.6 0.00 0.00 0.00 93 1015.2
20260510082129 22 156 0.0 1.6 0.00 0.00 0.00 93 1015.2
20260510081622 22 155 0.0 0.0 0.00 0.00 0.00 93 1015.1
20260510081118 22 155 0.0 0.0 0.00 0.00 0.00 93 1015.1
20260510080635 23 155 0.0 1.6 0.00 0.00 0.00 93 1015.2
20260510080117 23 155 0.0 1.6 0.00 0.00 0.00 93 1015.3
20260510075622 22 155 0.0 0.0 0.00 0.00 0.00 93 1015.4
20260510075125 23 156 0.0 1.6 0.00 0.00 0.00 93 1015.4
20260510074622 22 156 0.0 1.6 0.00 0.00 0.00 93 1015.4
20260510074122 22 156 0.0 1.6 0.00 0.00 0.00 93 1015.4
20260510073619 22 156 0.0 1.6 0.00 0.00 0.00 93 1015.4
20260510073144 22 156 0.0 0.0 0.00 0.00 0.00 93 1015.5
20260510072619 22 156 0.0 0.0 0.00 0.00 0.00 93 1015.6
20260510072133 22 156 0.0 0.0 0.00 0.00 0.00 93 1015.7
20260510071622 22 156 0.0 0.0 0.00 0.00 0.00 93 1015.7
20260510071200 22 156 0.0 0.0 0.00 0.00 0.00 93 1015.6
20260510070616 22 156 0.0 0.0 0.00 0.00 0.00 93 1015.6
20260510070121 22 156 0.0 3.2 0.00 0.00 0.00 93 1015.6
20260510065619 22 156 0.0 3.2 0.00 0.00 0.00 93 1015.7
20260510065122 22 155 0.0 3.2 0.00 0.00 0.00 93 1015.7
20260510064626 22 155 0.0 3.2 0.00 0.00 0.00 93 1015.7
20260510064122 22 26 0.0 0.0 0.00 0.00 0.00 93 1015.6
20260510063622 22 26 0.0 0.0 0.00 0.00 0.00 93 1015.9
20260510063143 22 26 0.0 0.0 0.00 0.00 0.00 93 1016.1
20260510062619 22 26 0.0 0.0 0.00 0.00 0.00 93 1016.2
20260510062117 22 26 0.0 0.0 0.00 0.00 0.00 92 1016.4
20260510061616 22 26 0.0 0.0 0.00 0.00 0.00 92 1016.4
20260510061146 22 26 0.0 0.0 0.00 0.00 0.00 92 1016.4
20260510060640 22 26 0.0 0.0 0.00 0.00 0.00 92 1016.5
20260510060120 23 26 0.0 0.0 0.00 0.00 0.00 92 1016.4
20260510055641 23 26 0.0 0.0 0.00 0.00 0.00 92 1016.3
20260510055131 23 26 0.0 0.0 0.00 0.00 0.00 92 1016.5
20260510054646 23 26 0.0 0.0 0.00 0.00 0.00 92 1016.7
20260510054132 23 26 0.0 0.0 0.00 0.00 0.00 92 1016.8
20260510053637 23 26 0.0 0.0 0.00 0.00 0.00 92 1016.8
20260510053120 23 26 0.0 0.0 0.00 0.00 0.00 92 1016.8
20260510052625 23 26 0.0 0.0 0.00 0.00 0.00 91 1016.9
20260510052125 23 26 0.0 0.0 0.00 0.00 0.00 91 1016.9
20260510051641 23 26 0.0 0.0 0.00 0.00 0.00 91 1017.0
20260510051130 23 26 0.0 0.0 0.00 0.00 0.00 91 1017.0
20260510050628 23 26 0.0 0.0 0.00 0.00 0.00 91 1017.1
20260510050151 23 26 0.0 0.0 0.00 0.00 0.00 91 1017.0
20260510045626 23 26 0.0 0.0 0.00 0.00 0.00 90 1017.0
20260510045118 23 26 0.0 0.0 0.00 0.00 0.00 90 1017.0
20260510044618 23 26 0.0 0.0 0.00 0.00 0.00 90 1017.1
20260510044121 23 26 0.0 0.0 0.00 0.00 0.00 90 1017.3
20260510043620 23 26 0.0 1.6 0.00 0.00 0.00 90 1017.2
20260510043124 23 26 0.0 1.6 0.00 0.00 0.00 90 1017.3
20260510042619 23 26 0.0 1.6 0.00 0.00 0.00 90 1017.3
20260510042122 23 26 0.0 1.6 0.00 0.00 0.00 89 1017.3
20260510041619 23 26 0.0 1.6 0.00 0.00 0.00 89 1017.2
20260510041117 23 26 0.0 0.0 0.00 0.00 0.00 89 1017.3
20260510040640 23 26 0.0 0.0 0.00 0.00 0.00 89 1017.3
20260510040122 23 26 0.0 0.0 0.00 0.00 0.00 89 1017.3
20260510035627 23 26 0.0 0.0 0.00 0.00 0.00 89 1017.4
20260510035123 23 26 0.0 0.0 0.00 0.00 0.00 89 1017.4
20260510034619 23 26 0.0 0.0 0.00 0.00 0.00 89 1017.3
20260510034139 23 26 0.0 0.0 0.00 0.00 0.00 89 1017.4
20260510033701 23 26 0.0 0.0 0.00 0.00 0.00 89 1017.5
20260510033127 23 26 0.0 0.0 0.00 0.00 0.00 89 1017.4
20260510032647 23 26 0.0 0.0 0.00 0.00 0.00 88 1017.4
20260510032142 23 26 0.0 0.0 0.00 0.00 0.00 88 1017.3
20260510031620 23 26 0.0 0.0 0.00 0.00 0.00 88 1017.1
20260510031117 23 26 0.0 0.0 0.00 0.00 0.00 88 1017.2
20260510030640 23 26 0.0 0.0 0.00 0.00 0.00 88 1017.2
20260510030127 23 26 0.0 0.0 0.00 0.00 0.00 88 1017.3
20260510025625 23 26 0.0 0.0 0.00 0.00 0.00 88 1017.1
20260510025115 23 26 0.0 0.0 0.00 0.00 0.00 88 1017.0
20260510024622 23 26 0.0 0.0 0.00 0.00 0.00 87 1017.0
20260510024142 23 26 0.0 0.0 0.00 0.00 0.00 87 1016.9
20260510023639 23 26 0.0 0.0 0.00 0.00 0.00 87 1017.0
20260510023129 23 26 0.0 0.0 0.00 0.00 0.00 87 1016.9
20260510022630 23 26 0.0 0.0 0.00 0.00 0.00 87 1016.8
20260510022135 23 26 0.0 0.0 0.00 0.00 0.00 87 1016.8
20260510021619 23 26 0.0 0.0 0.00 0.00 0.00 86 1016.8
20260510021140 24 26 0.0 0.0 0.00 0.00 0.00 86 1016.8
20260510020622 24 26 0.0 0.0 0.00 0.00 0.00 86 1016.7
20260510020125 24 26 0.0 0.0 0.00 0.00 0.00 86 1016.6
20260510015642 24 26 0.0 0.0 0.00 0.00 0.00 86 1016.6
20260510015137 24 26 0.0 1.6 0.00 0.00 0.00 85 1016.6
20260510014625 24 26 0.0 1.6 0.00 0.00 0.00 85 1016.6
20260510014123 24 26 0.0 3.2 0.00 0.00 0.00 85 1016.6
20260510013622 24 26 0.0 4.8 0.00 0.00 0.00 85 1016.5
20260510013120 24 26 0.0 8.0 0.00 0.00 0.00 86 1016.4
20260510012641 24 26 4.8 8.0 0.00 0.00 0.00 85 1016.3
20260510012137 25 11 0.0 6.4 0.00 0.00 0.00 85 1016.3
20260510011622 25 11 1.6 6.4 0.00 0.00 0.00 85 1016.3
20260510011143 25 11 0.0 4.8 0.00 0.00 0.00 85 1016.2
20260510010619 25 11 0.0 4.8 0.00 0.00 0.00 85 1016.2
20260510010127 25 11 1.6 4.8 0.00 0.00 0.00 85 1016.2
20260510005628 25 11 1.6 4.8 0.00 0.00 0.00 85 1016.2
20260510005149 25 5 1.6 9.7 0.00 0.00 0.00 85 1016.1
20260510004626 25 5 0.0 9.7 0.00 0.00 0.00 85 1016.0
20260510004145 25 21 0.0 3.2 0.00 0.00 0.00 84 1015.8
20260510003641 25 21 0.0 4.8 0.00 0.00 0.00 84 1015.8
20260510003120 25 21 1.6 8.0 0.00 0.00 0.00 84 1015.8
20260510002617 25 5 3.2 11.3 0.00 0.00 0.00 83 1015.8
20260510002138 25 30 3.2 12.9 0.00 0.00 0.00 84 1015.7
20260510001628 25 28 4.8 16.1 0.00 0.00 0.00 84 1015.6
20260510001125 25 40 4.8 16.1 0.00 0.00 0.00 84 1015.6
20260510000625 25 28 0.0 8.0 0.00 0.00 0.00 85 1015.5
20260510000122 25 28 3.2 11.3 0.00 0.00 0.00 84 1015.5
20260509235639 26 5 3.2 17.7 0.00 0.00 0.00 84 1015.4
20260509235139 26 25 6.4 17.7 0.00 0.00 0.00 85 1015.2
20260509234616 26 23 6.4 12.9 0.00 0.00 0.00 85 1015.2
20260509234117 26 27 3.2 12.9 0.00 0.00 0.00 85 1015.1
20260509233618 27 26 4.8 17.7 0.00 0.00 0.00 85 1015.0
20260509233119 27 17 3.2 11.3 0.00 0.00 0.00 85 1015.0
20260509232639 27 10 4.8 14.5 0.00 0.00 0.00 83 1015.0
20260509232141 28 15 6.4 14.5 0.00 0.00 0.00 79 1014.9
20260509231625 28 5 1.6 6.4 0.00 0.00 0.00 75 1014.9
20260509231146 28 13 1.6 4.8 0.00 0.00 0.00 75 1014.8
20260509230629 28 15 0.0 11.3 0.00 0.00 0.00 75 1014.7
20260509230129 28 15 1.6 11.3 0.00 0.00 0.00 75 1014.7
20260509225646 28 336 1.6 8.0 0.00 0.00 0.00 74 1014.6
20260509225123 28 36 0.0 4.8 0.00 0.00 0.00 74 1014.6
20260509224642 29 339 1.6 4.8 0.00 0.00 0.00 74 1014.6
20260509224121 29 333 0.0 8.0 0.00 0.00 0.00 73 1014.5
20260509223622 29 333 1.6 9.7 0.00 0.00 0.00 72 1014.4
20260509223119 29 13 1.6 9.7 0.00 0.00 0.00 71 1014.3
20260509222619 30 346 1.6 8.0 0.00 0.00 0.00 71 1014.1
20260509222152 30 360 0.0 4.8 0.00 0.00 0.00 70 1014.2
20260509221643 30 360 1.6 11.3 0.00 0.00 0.00 69 1014.1
20260509221121 31 319 3.2 11.3 0.00 0.00 0.00 68 1014.1
20260509220621 31 305 0.0 4.8 0.00 0.00 0.00 65 1014.0
20260509220122 31 301 1.6 4.8 0.00 0.00 0.00 65 1013.9
20260509215622 31 300 0.0 4.8 0.00 0.00 0.00 65 1013.9
20260509215123 31 316 1.6 6.4 0.00 0.00 0.00 65 1013.9
20260509214622 31 321 1.6 6.4 0.00 0.00 0.00 64 1013.8
20260509214119 31 308 1.6 4.8 0.00 0.00 0.00 63 1013.7
20260509213642 31 315 0.0 9.7 0.00 0.00 0.00 63 1013.7
20260509213121 31 306 0.0 6.4 0.00 0.00 0.00 63 1013.5
20260509212625 31 310 0.0 6.4 0.00 0.00 0.00 63 1013.5
20260509212132 32 253 1.6 4.8 0.00 0.00 0.00 64 1013.5
20260509211640 32 243 1.6 6.4 0.00 0.00 0.00 64 1013.4
20260509211120 32 269 0.0 6.4 0.00 0.00 0.00 64 1013.5
20260509210619 31 261 1.6 4.8 0.00 0.00 0.00 65 1013.5
20260509210206 31 262 1.6 4.8 0.00 0.00 0.00 65 1013.5
20260509205701 31 261 1.6 11.3 0.00 0.00 0.00 65 1013.5
20260509205113 31 254 3.2 11.3 0.00 0.00 0.00 64 1013.6
20260509204634 31 248 1.6 11.3 0.00 0.00 0.00 64 1013.6
20260509204130 31 240 1.6 9.7 0.00 0.00 0.00 65 1013.6
20260509203701 31 235 3.2 9.7 0.00 0.00 0.00 65 1013.5
20260509203117 31 238 1.6 8.0 0.00 0.00 0.00 66 1013.6
20260509202641 31 261 1.6 6.4 0.00 0.00 0.00 67 1013.5
20260509202204 31 262 1.6 6.4 0.00 0.00 0.00 68 1013.5
20260509201646 31 252 3.2 6.4 0.00 0.00 0.00 69 1013.5
20260509201133 30 252 1.6 6.4 0.00 0.00 0.00 69 1013.6
20260509200631 30 253 0.0 6.4 0.00 0.00 0.00 69 1013.7
20260509200130 30 261 3.2 6.4 0.00 0.00 0.00 69 1013.8
20260509195627 30 263 1.6 4.8 0.00 0.00 0.00 70 1013.7
20260509195124 30 263 0.0 0.0 0.00 0.00 0.00 71 1013.7
20260509194642 30 263 0.0 0.0 0.00 0.00 0.00 72 1013.8